Weather History for KSFY - October, 2013

Change the Weather History Date:

Saturday, October 12, 2013

  Actual Average (KCWI) Record (KCWI)
Temperature  
Mean Temperature 56 °F -  
Max Temperature 69 °F 66 °F 84 °F (1956)
Min Temperature 43 °F 43 °F 24 °F (1988)
Degree Days  
Heating Degree Days 9    
Growing Degree Days 6 (Base 50)    
Moisture  
Dew Point 47 °F    
Average Humidity 61    
Maximum Humidity 85    
Minimum Humidity 31    
Precipitation  
Precipitation 0.00 in - - ()
Sea Level Pressure  
Sea Level Pressure 30.00 in    
Wind  
Wind Speed 7 mph (SW)    
Max Wind Speed 14 mph    
Max Gust Speed 23 mph    
Visibility 10 miles    
Events      
Averages and records for this station are not official NWS values.
T = Trace of Precipitation, MM = Missing Value Source: NWS Daily Summary

Daily Weather History Graph

Daily Weather History Graph

Search for Another Location

Airport or City:

Trip Planner

Search our weather history database for the weather conditions in past years. The results will help you decide how hot, cold, wet, or windy it might be!

Date:

Astronomy

Oct. 12, 2013 Rise Set
Actual Time 7:09 AM CDT 6:23 PM CDT
Civil Twilight 6:41 AM CDT 6:51 PM CDT
Nautical Twilight 6:09 AM CDT 7:23 PM CDT
Astronomical Twilight 5:36 AM CDT 7:55 PM CDT
Moon 2:38 PM CDT (10/12) 12:07 AM CDT (10/12)
Length of Visible Light 12h 09m
Length of Day
11h 13m
First Quarter, 59% of the Moon is Illuminated
Oct 12
First Quarter
Oct 18
Full
Oct 26
Last Quarter
Nov 3
New
Nov 9
First Quarter

Hourly Weather History & Observations

Time (CDT) Temp. Dew Point Humidity Pressure Visibility Wind Dir Wind Speed Gust Speed Precip Events Conditions
12:15 AM 65.1 °F 53.6 °F 66% 29.90 in 10.0 mi SSE 8.1 mph - N/A   Mostly Cloudy
12:35 AM 64.9 °F 53.6 °F 67% 29.90 in 10.0 mi SSE 6.9 mph - N/A   Mostly Cloudy
12:55 AM 64.6 °F 53.6 °F 68% 29.89 in 10.0 mi South 6.9 mph - N/A   Overcast
1:15 AM 64.4 °F 53.6 °F 68% 29.89 in 10.0 mi SSE 9.2 mph - N/A   Overcast
1:35 AM 63.7 °F 53.8 °F 70% 29.90 in 10.0 mi SSE 8.1 mph - N/A   Overcast
1:55 AM 63.5 °F 54.0 °F 71% 29.90 in 10.0 mi SSE 8.1 mph - N/A   Overcast
2:15 AM 63.7 °F 54.0 °F 71% 29.90 in 10.0 mi SE 9.2 mph - N/A   Overcast
2:35 AM 64.0 °F 54.1 °F 70% 29.90 in 10.0 mi SSE 9.2 mph - N/A   Overcast
2:55 AM 64.4 °F 54.5 °F 70% 29.90 in 10.0 mi SSE 11.5 mph - N/A   Overcast
3:15 AM 64.2 °F 54.5 °F 71% 29.90 in 10.0 mi SSE 9.2 mph - N/A   Overcast
3:35 AM 64.4 °F 54.9 °F 71% 29.90 in 10.0 mi SSE 9.2 mph - N/A   Overcast
3:55 AM 64.0 °F 54.9 °F 72% 29.89 in 10.0 mi SSE 8.1 mph - N/A   Mostly Cloudy
4:16 AM 64.4 °F 55.4 °F 73% 29.89 in 10.0 mi SSE 10.4 mph - N/A   Clear
4:36 AM 62.6 °F 55.4 °F 77% 29.89 in 10.0 mi SSE 9.2 mph - N/A   Clear
4:57 AM 62.6 °F 55.4 °F 77% 29.89 in 10.0 mi SSE 6.9 mph - N/A   Clear
5:17 AM 62.6 °F 55.4 °F 77% 29.89 in 10.0 mi SSE 5.8 mph - N/A   Clear
5:38 AM 62.6 °F 55.4 °F 77% 29.90 in 10.0 mi SSE 4.6 mph - N/A   Clear
5:58 AM 60.8 °F 55.4 °F 82% 29.91 in 10.0 mi SSE 3.5 mph - N/A   Clear
6:15 AM 60.8 °F 55.4 °F 82% 29.90 in 10.0 mi SSE 5.8 mph - N/A   Clear
6:18 AM 60.8 °F 55.4 °F 82% 29.90 in 10.0 mi SE 6.9 mph - N/A   Clear
6:35 AM 61.2 °F 55.6 °F 82% 29.91 in 10.0 mi South 4.6 mph - N/A   Clear
6:55 AM 61.0 °F 55.4 °F 82% 29.91 in 10.0 mi South 6.9 mph - N/A   Clear
7:15 AM 61.7 °F 56.3 °F 82% 29.91 in 10.0 mi SSE 5.8 mph - N/A   Mostly Cloudy
7:35 AM 61.0 °F 55.8 °F 83% 29.92 in 10.0 mi South 5.8 mph - N/A   Scattered Clouds
7:55 AM 61.2 °F 56.5 °F 85% 29.93 in 10.0 mi South 4.6 mph - N/A   Scattered Clouds
8:15 AM 63.1 °F 57.0 °F 80% 29.94 in 10.0 mi South 8.1 mph - N/A   Scattered Clouds
8:35 AM 63.7 °F 57.4 °F 80% 29.95 in 10.0 mi South 5.8 mph - N/A   Mostly Cloudy
8:55 AM 64.4 °F 57.9 °F 79% 29.94 in 10.0 mi South 5.8 mph - N/A   Mostly Cloudy
9:15 AM 64.9 °F 57.9 °F 78% 29.95 in 10.0 mi SSW 6.9 mph - N/A   Mostly Cloudy
9:35 AM 64.6 °F 57.2 °F 77% 29.97 in 10.0 mi West 12.7 mph 16.1 mph N/A   Overcast
9:55 AM 61.7 °F 49.6 °F 65% 29.98 in 10.0 mi West 13.8 mph 17.3 mph N/A   Overcast
10:15 AM 61.0 °F 48.2 °F 63% 29.99 in 10.0 mi West 9.2 mph 19.6 mph N/A   Overcast
10:35 AM 61.2 °F 48.6 °F 63% 29.99 in 10.0 mi West 5.8 mph - N/A   Overcast
10:55 AM 61.2 °F 48.7 °F 64% 29.99 in 10.0 mi WNW 5.8 mph - N/A   Overcast
11:15 AM 61.7 °F 48.4 °F 62% 29.99 in 10.0 mi West 4.6 mph - N/A   Mostly Cloudy
11:35 AM 62.1 °F 46.9 °F 58% 30.01 in 10.0 mi West 8.1 mph - N/A   Scattered Clouds
11:55 AM 65.1 °F 46.8 °F 51% 30.01 in 10.0 mi West 3.5 mph - N/A   Scattered Clouds
12:15 PM 66.7 °F 46.8 °F 49% 30.00 in 10.0 mi West 8.1 mph - N/A   Clear
12:35 PM 67.6 °F 46.6 °F 47% 30.01 in 10.0 mi West 6.9 mph - N/A   Clear
12:55 PM 68.0 °F 43.0 °F 40% 30.00 in 10.0 mi West 11.5 mph 18.4 mph N/A   Clear
1:15 PM 68.9 °F 43.5 °F 40% 30.00 in 10.0 mi West 11.5 mph 16.1 mph N/A   Clear
1:35 PM 69.3 °F 41.7 °F 37% 30.00 in 10.0 mi West 9.2 mph - N/A   Clear
1:55 PM 69.1 °F 39.7 °F 34% 30.00 in 10.0 mi West 11.5 mph - N/A   Clear
2:15 PM 69.3 °F 41.2 °F 36% 30.01 in 10.0 mi West 11.5 mph - N/A   Clear
2:35 PM 69.1 °F 40.8 °F 36% 30.01 in 10.0 mi West 11.5 mph 18.4 mph N/A   Clear
2:55 PM 69.3 °F 39.6 °F 34% 30.02 in 10.0 mi West 9.2 mph 17.3 mph N/A   Clear
3:15 PM 69.6 °F 38.8 °F 33% 30.03 in 10.0 mi WSW 11.5 mph 18.4 mph N/A   Clear
3:35 PM 69.3 °F 38.7 °F 33% 30.04 in 10.0 mi West 11.5 mph 18.4 mph N/A   Clear
3:55 PM 69.1 °F 37.4 °F 31% 30.04 in 10.0 mi West 12.7 mph 23.0 mph N/A   Clear
4:15 PM 68.9 °F 37.9 °F 32% 30.04 in 10.0 mi WSW 12.7 mph 18.4 mph N/A   Clear
4:35 PM 68.9 °F 37.4 °F 32% 30.05 in 10.0 mi West 8.1 mph 16.1 mph N/A   Clear
4:55 PM 68.0 °F 36.0 °F 31% 30.06 in 10.0 mi WNW 13.8 mph 21.9 mph N/A   Clear
5:15 PM 67.1 °F 37.0 °F 33% 30.06 in 10.0 mi West 11.5 mph 17.3 mph N/A   Clear
5:35 PM 66.4 °F 35.2 °F 32% 30.07 in 10.0 mi West 10.4 mph 17.3 mph N/A   Clear
5:55 PM 65.5 °F 36.0 °F 34% 30.08 in 10.0 mi West 6.9 mph - N/A   Clear
6:15 PM 64.4 °F 36.1 °F 35% 30.09 in 10.0 mi West 8.1 mph - N/A   Clear
6:35 PM 63.3 °F 37.2 °F 38% 30.09 in 10.0 mi West 5.8 mph - N/A   Clear
6:55 PM 62.6 °F 37.8 °F 40% 30.10 in 10.0 mi West 5.8 mph - N/A   Clear
7:15 PM 61.2 °F 38.7 °F 43% 30.11 in 10.0 mi West 3.5 mph - N/A   Clear
7:35 PM 60.6 °F 39.6 °F 46% 30.11 in 10.0 mi West 3.5 mph - N/A   Clear
7:55 PM 60.1 °F 39.4 °F 46% 30.12 in 10.0 mi West 4.6 mph - N/A   Clear
8:15 PM 53.8 °F 40.5 °F 61% 30.12 in 10.0 mi Calm Calm - N/A   Clear
8:35 PM 51.1 °F 40.5 °F 67% 30.13 in 10.0 mi Calm Calm - N/A   Clear
8:55 PM 48.6 °F 40.3 °F 73% 30.14 in 10.0 mi NE 3.5 mph - N/A   Clear
9:15 PM 47.8 °F 40.6 °F 76% 30.15 in 10.0 mi Calm Calm - N/A   Clear
9:35 PM 48.2 °F 41.0 °F 76% 30.16 in 10.0 mi Calm Calm - N/A   Clear
9:55 PM 55.4 °F 40.3 °F 57% 30.17 in 10.0 mi WNW 3.5 mph - N/A   Clear
10:15 PM 49.3 °F 40.3 °F 71% 30.17 in 10.0 mi NW 3.5 mph - N/A   Clear
10:35 PM 50.5 °F 39.7 °F 66% 30.18 in 10.0 mi Calm Calm - N/A   Clear
10:55 PM 49.8 °F 39.2 °F 67% 30.18 in 10.0 mi NW 3.5 mph - N/A   Clear
11:15 PM 48.4 °F 39.9 °F 73% 30.19 in 10.0 mi Calm Calm - N/A   Clear
11:35 PM 43.5 °F 39.2 °F 85% 30.19 in 10.0 mi Calm Calm - N/A   Clear
11:55 PM 43.9 °F 39.6 °F 85% 30.20 in 10.0 mi Calm Calm - N/A   Clear